Location: Chimay
(50.0486°N, 4.3171°E)
Time: 09:53:23
(UTC+00:00)

Thor Agena Rocket - Pass Details

Date: 08 August 2020
Orbit: 760 x 807 km, 99.0° (Epoch: 20 September)

Event Time Altitude Azimuth Distance (km) Brightness Sun altitude
Rises 22:48:30 0° 15° (NNE) 3,238 7.7 -22.9°
Reaches altitude 10° 22:50:48 10° 16° (NNE) 2,311 6.8 -23.0°
Maximum altitude 22:55:54 89° 103° (ESE) 776 3.4 -23.2°
Enters shadow 22:56:58 58° 195° (SSW) 900 3.5 -23.2°
